Waarnemingen

Advertentie
Mijn weer
Biarritz, Frankrijk (7602): temperatuur & dauwpunt: 18.05.2017 04:00:00 - 24.05.2017 04:00:00 (CEST)Biarritz, Frankrijk (7602): temperatuur 5cm: 18.05.2017 04:00:00 - 24.05.2017 04:00:00 (CEST)Biarritz, Frankrijk (7602): temperatuur -20cm & temperatuur -100cm: 18.05.2017 04:00:00 - 24.05.2017 04:00:00 (CEST)Biarritz, Frankrijk (7602): windsnelheid & windstoten: 18.05.2017 04:00:00 - 24.05.2017 04:00:00 (CEST)Biarritz, Frankrijk (7602): windrichting: 18.05.2017 04:00:00 - 24.05.2017 04:00:00 (CEST)Biarritz, Frankrijk (7602): luchtdruk: 18.05.2017 04:00:00 - 24.05.2017 04:00:00 (CEST)Biarritz, Frankrijk (7602): zicht: 18.05.2017 04:00:00 - 24.05.2017 04:00:00 (CEST)Biarritz, Frankrijk (7602): Zonneschijnduur: 18.05.2017 04:00:00 - 24.05.2017 04:00:00 (CEST)Biarritz, Frankrijk (7602): neerslag: 18.05.2017 04:00:00 - 24.05.2017 04:00:00 (CEST)
Datum & Tijd tt [°C] td [°C] tt 5cm [°C] tt -20cm [°C] tt -100cm [°C] ff [km/u] ff [kn] fx [km/u] fx [kn] dd ppp [hPa] vv [km] sd [min] rr [mm]
24.05.2017 04:00:00 12,7 12,2 8,1 17,5 16,4 4 2 6 3 Z 1023,0 11 0 0,0
24.05.2017 03:00:00 12,7 12,1 8,5 17,7 16,4 5 3 6 4 Z 1023,4 10 0 0,0
24.05.2017 02:00:00 13,1 12,2 10,1 17,9 16,4 3 2 6 4 ZZW 1023,8 13 0 0,0
24.05.2017 01:00:00 14,0 12,6 9,5 18,0 16,4 4 2 5 3 ZZW 1024,1 21 0 0,0
24.05.2017 00:00:00 14,6 12,6 10,2 18,1 16,4 0 0 5 3 N 1024,1 30 0 0,0
23.05.2017 23:00:00 15,5 13,2 14,5 18,3 16,4 5 3 14 8 N 1024,1 30 0 0,0
23.05.2017 22:00:00 15,8 13,3 14,9 18,3 16,4 6 3 13 7 N 1023,8 45 8 0,0
23.05.2017 21:00:00 16,7 13,4 17,5 18,4 16,4 8 4 15 8 NNW 1023,7 44 60 0,0
23.05.2017 20:00:00 18,3 12,9 19,5 18,4 16,4 10 5 18 10 NNO 1023,3 35 60 0,0
23.05.2017 19:00:00 18,3 13,6 22,4 18,4 16,4 14 8 24 13 N 1023,5 49 60 0,0
23.05.2017 18:00:00 18,1 13,2 23,1 18,3 16,4 16 8 27 14 NNW 1023,7 47 60 0,0
23.05.2017 17:00:00 18,2 13,9 23,3 18,0 16,4 19 10 29 16 NNW 1024,0 44 60 0,0
23.05.2017 16:00:00 18,4 13,0 24,1 17,7 16,4 16 8 26 14 NNW 1024,2 53 60 0,0
23.05.2017 15:00:00 18,7 12,0 22,4 17,4 16,4 13 7 22 12 N 1024,4 20 30 0,0
23.05.2017 14:00:00 18,2 11,3 21,0 17,1 16,4 4 2 14 8 WZW 1024,9 20 12 0,0
23.05.2017 13:00:00 17,3 10,9 20,1 17,0 16,4 7 4 15 8 NNW 1025,5 39 0 0,0
23.05.2017 12:00:00 17,2 11,5 19,1 16,9 16,4 8 4 13 7 W 1025,4 20 0 0,0
23.05.2017 11:00:00 16,5 10,8 18,0 16,9 16,4 6 3 11 6 NW 1025,4 19 0 0,0
23.05.2017 10:00:00 16,2 10,7 17,0 16,9 16,4 3 1 9 5 ZW 1025,3 37 0 0,0
23.05.2017 09:00:00 15,7 10,5 15,5 16,9 16,4 9 5 16 9 WNW 1024,9 40 0 0,0
23.05.2017 08:00:00 15,2 10,4 14,8 17,0 16,4 9 5 17 9 WNW 1024,5 20 0 0,0
23.05.2017 07:00:00 15,0 10,2 14,5 17,1 16,4 6 4 16 8 W 1023,9 31 0 0,0
23.05.2017 06:00:00 14,8 10,6 14,4 17,2 16,4 8 4 20 11 W 1023,5 30 0 0,0
23.05.2017 05:00:00 14,7 10,3 14,5 17,3 16,4 13 7 23 12 W 1023,5 30 0 0,0
23.05.2017 04:00:00 14,8 11,0 14,7 17,4 16,3 15 8 25 13 WNW 1023,6 27 0 0,0
23.05.2017 03:00:00 14,8 11,0 14,6 17,5 16,3 16 9 29 15 W 1023,5 29 0 0,0
23.05.2017 02:00:00 14,8 11,6 14,7 17,6 16,3 18 10 25 13 W 1023,5 20 0 0,0
23.05.2017 01:00:00 14,8 11,8 14,7 17,7 16,3 13 7 26 14 W 1023,5 18 0 0,0
23.05.2017 00:00:00 14,8 11,6 14,7 17,8 16,3 11 6 27 15 W 1023,3 17 0 0,0
22.05.2017 23:00:00 14,9 12,2 14,8 18,0 16,3 12 7 26 14 W 1023,2 14 0 0,0
22.05.2017 22:00:00 14,9 12,4 14,6 18,1 16,3 9 5 23 12 W 1022,3 14 0 0,0
22.05.2017 21:00:00 15,2 12,3 15,2 18,2 16,3 12 6 27 15 W 1021,8 14 0 0,0
22.05.2017 20:00:00 15,3 12,6 15,6 18,2 16,3 20 11 38 20 W 1021,2 12 0 0,0
22.05.2017 19:00:00 15,6 12,5 16,2 18,3 16,3 22 12 42 23 W 1020,9 12 0 0,0
22.05.2017 18:00:00 15,9 13,2 17,0 18,3 16,3 25 14 38 21 W 1020,8 12 0 0,0
22.05.2017 17:00:00 16,0 13,3 17,3 18,3 16,3 27 15 40 21 W 1020,5 11 0 0,0
22.05.2017 16:00:00 16,6 13,7 18,5 18,2 16,3 27 14 38 20 W 1020,4 8 0 0,0
22.05.2017 15:00:00 16,8 14,1 18,0 18,1 16,2 22 12 37 20 W 1020,2 9 0 0,0
22.05.2017 14:00:00 17,0 14,3 18,8 17,9 16,3 25 14 42 23 W 1019,6 11 0 0,0
22.05.2017 13:00:00 16,8 14,4 18,9 17,7 16,3 26 14 41 22 W 1019,1 10 11 0,0
22.05.2017 12:00:00 18,1 15,0 22,6 17,5 16,2 31 17 42 23 W 1018,1 16 60 0,0
22.05.2017 11:00:00 20,6 14,9 22,4 17,4 16,2 21 12 31 17 WNW 1017,1 20 57 0,0
22.05.2017 10:00:00 19,8 14,6 20,7 17,3 16,2 16 9 30 16 WNW 1016,2 19 8 0,0
22.05.2017 09:00:00 20,1 13,8 19,8 17,3 16,2 10 6 15 8 W 1014,9 20 27 0,0
22.05.2017 08:00:00 18,8 14,3 17,2 17,4 16,2 5 3 11 6 WZW 1014,2 20 60 0,0
22.05.2017 07:00:00 17,8 13,7 16,3 17,5 16,2 7 4 20 11 ZW 1014,1 20 2 0,0
22.05.2017 06:00:00 16,6 14,4 15,9 17,5 16,2 13 7 34 19 WZW 1013,8 15 0 0,0
22.05.2017 05:00:00 18,5 14,2 17,5 17,6 16,2 27 15 49 26 WNW 1013,6 30 0 0,0
22.05.2017 04:00:00 21,6 11,9 17,9 17,7 16,2 4 2 13 7 W 1011,5 53 0 0,0
22.05.2017 03:00:00 21,3 12,2 17,4 17,7 16,2 6 3 24 13 ZZW 1011,0 60 0 0,0
22.05.2017 02:00:00 19,3 12,3 16,1 17,8 16,2 8 5 13 7 ZO 1011,2 60 0 0,0
22.05.2017 01:00:00 19,8 12,8 18,0 17,9 16,2 6 3 11 6 OZO 1011,6 60 0 0,0
22.05.2017 00:00:00 19,2 12,7 16,9 18,0 16,2 12 6 16 9 O 1012,0 60 0 0,0
21.05.2017 23:00:00 20,1 12,6 19,2 18,1 16,2 11 6 20 11 O 1012,3 60 0 0,0
21.05.2017 22:00:00 20,8 13,0 19,6 18,1 16,2 13 7 24 13 O 1012,2 60 6 0,0
21.05.2017 21:00:00 23,1 12,7 22,0 18,1 16,2 16 9 23 12 ONO 1012,4 60 17 0,0
21.05.2017 20:00:00 23,3 12,3 22,7 18,1 16,2 15 8 27 14 OZO 1012,5 60 0 0,0
21.05.2017 19:00:00 23,9 12,2 23,3 18,0 16,2 13 7 27 15 OZO 1012,9 60 0 0,0
21.05.2017 18:00:00 24,6 12,5 24,4 17,8 16,2 13 7 30 16 O 1013,4 57 0 0,0
21.05.2017 17:00:00 25,7 12,9 26,5 17,5 16,2 19 10 34 18 O 1014,2 57 12 0,0
21.05.2017 16:00:00 25,5 12,7 25,1 17,1 16,2 22 12 34 18 O 1015,0 51 29 0,0
21.05.2017 15:00:00 25,1 12,7 25,9 16,6 16,2 22 12 32 17 O 1015,7 38 52 0,0
21.05.2017 14:00:00 24,1 11,1 26,8 16,2 16,2 23 13 35 19 O 1016,9 35 60 0,0
21.05.2017 13:00:00 21,7 10,8 23,0 15,9 16,2 21 11 31 17 O 1017,8 37 35 0,0
21.05.2017 12:00:00 20,1 10,2 22,1 15,7 16,2 17 9 31 17 O 1018,5 34 60 0,0
21.05.2017 11:00:00 18,4 9,2 18,8 15,6 16,3 20 11 34 18 O 1018,9 42 60 0,0
21.05.2017 10:00:00 15,6 10,1 14,4 15,6 16,2 18 10 29 16 O 1019,3 59 25 0,0
21.05.2017 09:00:00 13,5 9,5 12,8 15,7 16,2 18 10 27 15 O 1019,5 59 54 0,0
21.05.2017 08:00:00 12,3 9,3 10,5 15,8 16,3 13 7 19 10 O 1020,2 43 25 0,0
21.05.2017 07:00:00 11,1 8,8 9,9 15,9 16,3 14 8 17 9 O 1020,3 56 0 0,0
21.05.2017 06:00:00 10,3 8,9 9,6 16,1 16,3 11 6 19 10 O 1020,7 51 0 0,0
21.05.2017 05:00:00 10,4 9,2 9,7 16,2 16,3 10 5 14 8 O 1021,2 51 0 0,0
21.05.2017 04:00:00 9,9 8,7 9,1 16,4 16,2 11 6 15 8 O 1022,1 48 0 0,0
21.05.2017 03:00:00 10,1 8,7 9,5 16,6 16,3 8 5 12 7 O 1023,0 55 0 0,0
21.05.2017 02:00:00 11,7 9,1 7,4 16,8 16,3 6 4 9 5 ONO 1023,6 56 0 0,0
21.05.2017 01:00:00 11,3 9,2 8,1 16,9 16,3 6 3 10 5 OZO 1024,1 59 0 0,0
21.05.2017 00:00:00 11,2 9,5 9,1 17,1 16,3 8 4 10 6 O 1024,6 37 0 0,0
20.05.2017 23:00:00 13,4 9,8 10,5 17,2 16,3 4 2 11 6 O 1025,1 20 0 0,0
20.05.2017 22:00:00 14,4 10,0 13,1 17,3 16,3 9 5 14 8 N 1025,2 20 5 0,0
20.05.2017 21:00:00 15,4 9,3 15,2 17,4 16,3 8 5 13 7 N 1025,1 44 49 0,0
20.05.2017 20:00:00 16,2 8,7 17,2 17,4 16,3 9 5 16 8 N 1025,1 54 40 0,0
20.05.2017 19:00:00 17,4 7,4 22,4 17,4 16,3 8 5 15 8 N 1025,2 54 60 0,0
20.05.2017 18:00:00 17,5 8,6 23,4 17,2 16,3 10 5 20 11 N 1025,5 47 60 0,0
20.05.2017 17:00:00 17,6 9,5 23,3 16,9 16,3 11 6 21 12 NNW 1025,9 20 60 0,0
20.05.2017 16:00:00 17,0 9,2 21,8 16,5 16,4 12 6 22 12 NW 1026,1 36 60 0,0
20.05.2017 15:00:00 16,7 9,4 22,2 16,1 16,4 14 8 25 13 NW 1026,6 35 60 0,0
20.05.2017 14:00:00 16,6 10,4 20,3 15,7 16,4 13 7 31 17 W 1026,7 20 52 0,0
20.05.2017 13:00:00 16,2 11,4 19,1 15,4 16,4 16 9 31 17 W 1026,7 20 51 0,0
20.05.2017 12:00:00 15,8 10,8 16,1 15,2 16,4 18 10 36 19 W 1026,4 24 36 0,0
20.05.2017 11:00:00 14,8 11,4 15,5 15,1 16,4 16 9 33 18 WZW 1026,0 35 37 0,0
20.05.2017 10:00:00 14,1 12,1 12,3 15,1 16,4 14 7 32 17 WZW 1025,7 20 10 0,2
20.05.2017 09:00:00 12,8 11,4 12,2 15,2 16,4 16 9 35 19 WZW 1025,2 7 0 0,4
20.05.2017 08:00:00 12,5 11,6 12,0 15,3 16,5 20 11 45 24 W 1024,5 13 0 0,4
20.05.2017 07:00:00 13,0 10,2 10,7 15,3 16,5 17 9 32 18 WZW 1023,7 39 0 0,0
20.05.2017 06:00:00 11,1 8,0 10,3 15,4 16,5 3 2 10 5 ZW 1023,0 19 0 0,0
20.05.2017 05:00:00 10,7 8,1 9,4 15,4 16,5 4 2 13 7 WZW 1023,4 15 0 0,0
20.05.2017 04:00:00 10,5 7,9 9,4 15,5 16,5 5 3 9 5 Z 1023,3 58 0 0,0
20.05.2017 03:00:00 10,6 7,7 9,9 15,6 16,5 5 3 10 5 ZW 1023,7 60 0 0,0
20.05.2017 02:00:00 10,6 7,7 9,5 15,7 16,5 4 2 9 5 ZZW 1024,0 59 0 0,0
20.05.2017 01:00:00 11,8 8,3 11,1 15,9 16,6 4 2 8 5 ZW 1023,9 58 0 0,0
20.05.2017 00:00:00 12,6 8,5 11,9 15,9 16,6 5 3 13 7 WZW 1024,2 55 0 0,0
19.05.2017 23:00:00 13,4 8,0 12,5 16,0 16,6 6 3 17 9 ZW 1024,2 13 0 0,0
19.05.2017 22:00:00 13,2 8,3 12,5 16,1 16,6 10 5 19 10 WZW 1024,0 45 0 0,0
19.05.2017 21:00:00 13,7 7,9 13,3 16,2 16,6 10 5 29 16 W 1023,8 48 1 0,0
19.05.2017 20:00:00 14,1 8,1 14,3 16,2 16,6 20 11 37 20 W 1023,8 42 0 0,0
19.05.2017 19:00:00 14,7 8,6 15,3 16,1 16,6 26 14 42 23 W 1023,5 20 40 0,0
19.05.2017 18:00:00 15,7 9,1 15,9 16,1 16,6 25 14 43 23 W 1023,3 26 23 0,0
19.05.2017 17:00:00 15,8 8,5 18,8 16,0 16,7 30 16 46 25 W 1023,0 20 60 0,0
19.05.2017 16:00:00 15,5 9,2 16,3 15,7 16,7 29 16 49 26 W 1023,0 20 20 0,0
19.05.2017 15:00:00 14,4 8,6 13,3 15,5 16,8 27 14 46 25 W 1022,9 29 36 0,0
19.05.2017 14:00:00 12,3 9,8 11,3 15,3 16,7 16 9 45 24 W 1022,8 22 9 2,4
19.05.2017 13:00:00 14,7 9,9 16,8 15,2 16,7 21 11 43 23 WZW 1022,4 20 56 0,0
19.05.2017 12:00:00 13,5 10,1 10,6 15,1 16,8 22 12 39 21 W 1022,3 19 18 2,2
19.05.2017 11:00:00 11,6 10,0 10,9 15,1 16,8 6 4 35 19 W 1022,1 2,3 20 1,7
19.05.2017 10:00:00 12,2 10,8 10,4 15,2 16,8 11 6 32 17 WZW 1021,8 19 9 2,0
19.05.2017 09:00:00 11,0 9,4 9,5 15,3 16,8 13 7 32 17 W 1021,5 1,4 0 9,4
19.05.2017 08:00:00 10,5 8,8 9,5 15,4 16,8 7 4 16 8 ZW 1021,1 5 6 0,8
19.05.2017 07:00:00 10,8 9,2 8,7 15,6 16,8 9 5 31 17 WZW 1020,4 40 0 2,8
19.05.2017 06:00:00 10,8 8,2 9,6 15,7 16,8 8 5 27 15 ZW 1020,2 10 0 0,6
19.05.2017 05:00:00 10,5 7,9 8,6 15,9 16,8 8 5 23 12 ZW 1020,3 18 0 0,0
19.05.2017 04:00:00 9,9 7,3 8,3 16,0 16,8 11 6 22 12 WZW 1020,4 60 0 0,0
19.05.2017 03:00:00 10,0 8,1 7,5 16,2 16,9 9 5 16 9 ZW 1020,5 59 0 0,0
19.05.2017 02:00:00 9,4 7,8 7,6 16,4 16,9 8 5 56 30 WZW 1020,9 43 0 4,0
19.05.2017 01:00:00 12,5 9,9 9,3 16,5 16,8 5 3 29 15 ZZW 1020,6 37 0 4,3
19.05.2017 00:00:00 12,8 9,8 11,2 16,6 16,9 9 5 21 12 WNW 1021,1 15 0 0,0
18.05.2017 23:00:00 12,2 9,0 10,7 16,7 16,9 15 8 37 20 NNW 1021,1 48 0 0,2
18.05.2017 22:00:00 13,3 9,2 12,7 16,8 16,9 20 11 35 19 NW 1020,5 60 0 0,0
18.05.2017 21:00:00 13,4 8,7 12,9 16,9 16,9 22 12 41 22 WNW 1020,0 60 21 0,0
18.05.2017 20:00:00 13,5 10,5 12,2 16,9 16,9 13 7 37 20 NNW 1019,8 20 13 0,0
18.05.2017 19:00:00 12,7 10,2 12,0 16,9 16,9 21 11 42 23 WNW 1019,8 15 0 0,2
18.05.2017 18:00:00 13,3 10,5 12,3 16,9 16,9 19 10 34 18 W 1019,2 40 0 0,2
18.05.2017 17:00:00 12,4 10,6 13,1 17,0 16,9 8 4 23 12 ZW 1019,1 27 0 0,0
18.05.2017 16:00:00 11,9 11,0 11,5 17,1 16,9 11 6 32 18 ZW 1019,1 17 0 1,0
18.05.2017 15:00:00 11,6 10,5 11,0 17,2 16,8 13 7 27 15 W 1019,2 4,4 0 3,1
18.05.2017 14:00:00 11,4 10,1 10,5 17,4 16,9 9 5 33 18 W 1019,0 4,3 0 3,0
18.05.2017 13:00:00 11,1 9,2 10,4 17,6 16,9 16 9 36 20 NW 1019,2 10 0 2,8
18.05.2017 12:00:00 11,6 9,7 10,8 17,8 16,8 29 16 44 24 NW 1018,4 11 0 4,0
18.05.2017 11:00:00 11,8 10,4 11,1 17,9 16,8 25 13 56 30 NW 1018,0 7 0 1,0
18.05.2017 10:00:00 12,2 11,4 12,0 18,0 16,8 30 16 56 30 NW 1017,2 3,6 0 1,5
18.05.2017 09:00:00 13,5 12,9 13,2 18,1 16,9 31 17 53 29 NW 1016,1 6 0 4,0
18.05.2017 08:00:00 14,6 14,1 14,4 18,2 16,8 12 7 23 13 WZW 1014,9 4,7 0 0,2
18.05.2017 07:00:00 14,6 14,1 14,3 18,3 16,8 12 6 27 15 WZW 1015,0 4,9 0 0,6
18.05.2017 06:00:00 15,0 14,4 14,7 18,4 16,8 4 2 14 7 ZW 1015,4 4,6 0 0,2
18.05.2017 05:00:00 15,1 14,0 14,7 18,5 16,8 3 2 6 4 ZZW 1015,8 2,1 0 0,0
18.05.2017 04:00:00 15,2 14,1 15,0 18,6 16,8 3 1 6 4 ZW 1016,6 14 0 0,0

tt = temperatuur
td = dauwpunt
tt 5cm = temperatuur 5cm
tt -20cm = temperatuur -20cm
tt -100cm = temperatuur -100cm
ff = windsnelheid
fx = windstoten
dd = windrichting
ppp = luchtdruk
vv = zicht
sd = Zonneschijnduur
rr = neerslag

Weerstations in de omgeving